{"data":{"norad_id":61878,"intl_designator":"2024-204E","name":"STARLINK-11314 [DTC]","alt_names":[],"object_type":"PAYLOAD","status":"ACTIVE","operator":null,"country":"US","launch_date":"2024-11-09","launch_site_code":"AFWTR","launch_vehicle":null,"mission":null,"orbit_class":"UNKNOWN","rcs_meters":null,"size_class":null,"mass_kg":null,"dimensions":null,"purposes":["comms"],"wikipedia_slug":null,"has_3d_model":false,"image_url":null,"decayed_at":null,"tle_current":{"epoch":"2026-09-21T19:11:40.699968Z","epoch_age_seconds":76269,"freshness":"FRESH","line1":"1 61878U 24204E   26264.79977662 -.00000702  00000+0 -93689-6 0  9996","line2":"2 61878  53.1597 109.6800 0000989  69.9367 290.1758 15.69707527107719","mean_motion":15.69707527,"eccentricity":9.89e-5,"inclination_deg":53.1597,"raan_deg":109.68,"arg_perigee_deg":69.9367,"mean_anomaly_deg":290.1758,"bstar":-9.3689e-7,"rev_number":10771,"period_min":91.736834743483,"perigee_km":359.06745178365,"apogee_km":360.40020263327,"semimajor_km":6737.8708272085,"source":"CELESTRAK","updated_at":"2026-09-22T09:00:49.445212Z"}}}